Location: Unspecified
(33.2407°S, 0.0000°E)
Time: 02:08:39
(UTC+00:00)

Envisat - Pass Details

Date: 28 May 2019
Orbit: 764 x 766 km, 98.1° (Epoch: 24 June)

Event Time Altitude Azimuth Distance (km) Brightness Sun altitude
Exits shadow 18:37:50 29° 62° (ENE) 1,392 3.9 -19.7°
Drops below altitude 10° 18:41:19 10° 21° (NNE) 2,303 5.4 -20.5°
Sets 18:43:51 0° 11° (N) 3,221 6.3 -21.0°
